Date String (YYYY-MM-DD hh:mm:ss) UTC,Instrument flags,Ambient pressure (hPa),Sample flow (lpm),Bypass flow (lpm),Sample temperature (°C),Ambient temperature (°C),ASC tube jacket temperature (°C),LED temperature (°C),Box temperature (°C),Sample RH (%),Span deviation,Mass concentration (μg/m³),Mass concentration (μg/m³),Mass concentration (μg/m³)
DateTimeUTC,F1_M11,P_M11,Q1_M11,Q2_M11,T1_M11,T2_M11,T3_M11,T4_M11,T5_M11,U1_M11,ZSPAN_M11,X0_M11,X2_M11,X1_M11
2022-11-09 10:00:00,,0820.0,5.00,0.00,26.2,24.5,00.0,35.0,28.1,14.0,0000.6,0018.10,0006.57,0005.34
2022-11-09 10:01:00,,0820.0,5.00,0.00,26.2,24.5,00.0,35.0,28.1,14.0,0000.2,0017.89,0006.62,0005.35
2022-11-09 10:02:00,,0819.9,5.00,0.00,26.2,24.5,00.0,35.0,28.1,14.0,0000.1,0017.55,0006.68,0005.36
2022-11-09 10:03:00,,0819.9,5.00,0.00,26.2,24.5,00.0,35.0,28.1,14.0,0000.3,0017.53,0006.74,0005.37
2022-11-09 10:04:00,,0819.9,5.01,0.00,26.2,24.5,00.0,35.0,28.1,14.0,0000.0,0017.16,0006.73,0005.36
2022-11-09 10:05:00,,0819.9,5.00,0.00,26.2,24.5,00.0,35.0,28.0,14.0,0000.0,0018.12,0006.74,0005.36
2022-11-09 10:06:00,,0819.9,5.00,0.00,26.2,24.5,00.0,35.0,28.1,14.0,0000.0,0017.92,0006.68,0005.36
2022-11-09 10:07:00,,0819.9,5.00,0.00,26.2,24.5,00.0,35.0,28.1,14.0,0000.1,0018.47,0006.66,0005.36
2022-11-09 10:08:00,,0819.9,5.00,0.00,26.2,24.5,00.0,35.0,28.1,14.0,0000.0,0018.84,0006.66,0005.38
2022-11-09 10:09:00,,0819.9,5.00,0.00,26.2,24.5,00.0,35.0,28.1,14.0,0000.0,0019.46,0006.66,0005.40
2022-11-09 10:10:00,,0820.0,5.00,0.00,26.2,24.5,00.0,35.0,28.1,14.0,-000.1,0019.14,0006.69,0005.40
2022-11-09 10:11:00,,0820.0,5.01,0.00,26.2,24.5,00.0,35.0,28.0,14.0,0000.1,0018.26,0006.72,0005.40
2022-11-09 10:12:00,,0819.9,4.99,0.00,26.2,24.5,00.0,35.0,28.0,14.0,0000.3,0017.94,0006.77,0005.41
2022-11-09 10:13:00,,0820.0,4.98,0.00,26.2,24.5,00.0,35.0,28.0,13.9,0000.6,0018.52,0006.87,0005.44
2022-11-09 10:14:00,,0819.9,5.00,0.00,26.2,24.5,00.0,35.0,28.0,13.9,0000.7,0019.17,0006.91,0005.45
2022-11-09 10:15:00,,0819.9,5.01,0.00,26.2,24.4,00.0,35.0,28.0,13.9,0000.4,0018.93,0006.91,0005.44
2022-11-09 10:16:00,,0819.9,5.00,0.00,26.2,24.4,00.0,34.9,28.0,14.0,0000.4,0018.29,0006.95,0005.46
2022-11-09 10:17:00,,0819.9,5.00,0.00,26.2,24.4,00.0,34.9,28.0,14.0,0000.6,0018.57,0007.01,0005.46
2022-11-09 10:18:00,,0819.9,4.99,0.00,26.1,24.4,00.0,34.9,28.0,14.0,0000.1,0017.16,0007.01,0005.45
2022-11-09 10:19:00,,0819.9,4.99,0.00,26.1,24.4,00.0,34.9,28.0,14.0,-000.4,0016.91,0007.03,0005.46
2022-11-09 10:20:00,,0819.9,5.00,0.00,26.1,24.4,00.0,34.9,28.0,14.1,-000.1,0016.33,0007.11,0005.47
2022-11-09 10:21:00,,0819.9,5.01,0.00,26.1,24.4,00.0,34.9,28.0,14.1,0000.1,0015.93,0007.06,0005.46
2022-11-09 10:22:00,,0819.9,5.00,0.00,26.1,24.4,00.0,34.9,28.0,14.1,0000.5,0016.55,0007.10,0005.47
2022-11-09 10:23:00,,0819.9,5.00,0.00,26.1,24.4,00.0,34.9,28.0,14.2,0000.9,0017.47,0007.11,0005.49
2022-11-09 10:24:00,,0819.9,4.99,0.00,26.1,24.4,00.0,34.9,28.0,14.2,0000.0,0017.80,0007.03,0005.49
2022-11-09 10:25:00,,0820.0,4.99,0.00,26.1,24.4,00.0,34.9,28.0,14.3,0000.0,0017.17,0006.97,0005.52
2022-11-09 10:26:00,,0819.9,5.00,0.00,26.1,24.4,00.0,34.9,28.0,14.3,0000.0,0017.18,0007.00,0005.55
2022-11-09 10:27:00,,0820.0,5.00,0.00,26.1,24.4,00.0,34.9,28.0,14.3,0000.2,0017.06,0007.01,0005.57
2022-11-09 10:28:00,,0820.0,5.01,0.00,26.1,24.4,00.0,34.9,28.0,14.4,0001.2,0016.64,0007.05,0005.61
2022-11-09 10:29:00,,0820.0,5.00,0.00,26.1,24.4,00.0,34.9,28.0,14.4,0001.4,0016.56,0007.03,0005.62
2022-11-09 10:30:00,,0820.0,5.00,0.00,26.1,24.4,00.0,34.8,27.9,14.3,0001.7,0016.88,0007.05,0005.63
2022-11-09 10:31:00,,0820.0,4.99,0.00,26.1,24.4,00.0,34.8,27.9,14.1,0001.5,0017.45,0007.03,0005.64
2022-11-09 10:32:00,,0820.0,5.00,0.00,26.1,24.3,00.0,34.8,27.9,14.1,0001.4,0017.46,0007.04,0005.66
2022-11-09 10:33:00,,0819.9,5.00,0.00,26.0,24.3,00.0,34.8,27.8,14.1,0001.0,0017.58,0007.05,0005.66
2022-11-09 10:34:00,,0819.9,5.00,0.00,26.0,24.3,00.0,34.8,27.8,14.1,-000.6,0017.03,0007.08,0005.65
2022-11-09 10:35:00,,0819.9,5.00,0.00,26.0,24.3,00.0,34.8,27.8,14.1,-001.2,0015.61,0007.11,0005.65
2022-11-09 10:36:00,,0819.9,5.00,0.00,26.0,24.2,00.0,34.8,27.8,14.2,-001.8,0015.67,0007.17,0005.63
2022-11-09 10:37:00,,0819.9,5.00,0.00,26.0,24.2,00.0,34.8,27.8,14.2,-001.7,0015.83,0007.19,0005.63
2022-11-09 10:38:00,,0819.9,5.02,0.00,26.0,24.2,00.0,34.8,27.8,14.3,-001.9,0015.63,0007.15,0005.64
2022-11-09 10:39:00,,0819.9,5.00,0.00,26.0,24.2,00.0,34.8,27.8,14.4,-002.0,0015.61,0007.09,0005.65
2022-11-09 10:40:00,,0819.9,5.00,0.00,26.0,24.2,00.0,34.8,27.7,14.4,-002.0,0016.45,0007.13,0005.67
2022-11-09 10:41:00,,0820.0,5.00,0.00,25.9,24.2,00.0,34.8,27.8,14.4,-001.9,0016.35,0007.18,0005.69
2022-11-09 10:42:00,,0819.9,4.99,0.00,25.9,24.1,00.0,34.8,27.8,14.4,-002.0,0016.42,0007.18,0005.72
2022-11-09 10:43:00,,0820.0,5.00,0.00,25.9,24.1,00.0,34.7,27.7,14.5,-001.4,0016.78,0007.20,0005.74
2022-11-09 10:44:00,,0819.9,5.00,0.00,25.9,24.1,00.0,34.7,27.7,14.6,-001.1,0016.45,0007.21,0005.77
2022-11-09 10:45:00,,0819.9,5.02,0.00,25.9,24.1,00.0,34.7,27.7,14.5,-000.6,0017.19,0007.20,0005.79
2022-11-09 10:46:00,,0820.0,5.00,0.00,25.9,24.1,00.0,34.7,27.7,14.5,-000.6,0017.50,0007.16,0005.80
2022-11-09 10:47:00,,0820.0,4.99,0.00,25.9,24.1,00.0,34.7,27.7,14.4,-000.2,0017.91,0007.12,0005.82
2022-11-09 10:48:00,,0820.0,4.99,0.00,25.8,24.0,00.0,34.7,27.7,14.4,-000.1,0017.92,0007.11,0005.83
2022-11-09 10:49:00,,0819.9,5.00,0.00,25.8,24.0,00.0,34.7,27.6,14.5,0000.1,0018.39,0007.13,0005.84
2022-11-09 10:50:00,,0819.9,5.02,0.00,25.8,24.0,00.0,34.7,27.6,14.5,0000.1,0018.95,0007.18,0005.84
2022-11-09 10:51:00,,0820.0,5.00,0.00,25.8,23.9,00.0,34.7,27.6,14.6,0000.2,0018.90,0007.22,0005.83
2022-11-09 10:52:00,,0820.0,4.99,0.00,25.7,23.9,00.0,34.7,27.5,14.8,0000.1,0018.37,0007.21,0005.84
2022-11-09 10:53:00,,0819.9,4.99,0.00,25.7,23.9,00.0,34.6,27.5,14.9,0000.7,0019.32,0007.24,0005.86
2022-11-09 10:54:00,,0819.9,5.00,0.00,25.7,23.8,00.0,34.6,27.5,15.0,0000.9,0019.08,0007.23,0005.87
2022-11-09 10:55:00,,0819.9,5.01,0.00,25.7,23.8,00.0,34.6,27.5,15.1,0000.9,0019.16,0007.25,0005.89
2022-11-09 10:56:00,,0820.0,5.00,0.00,25.7,23.8,00.0,34.6,27.5,15.1,0000.8,0019.13,0007.25,0005.92
2022-11-09 10:57:00,,0819.9,4.99,0.00,25.7,23.8,00.0,34.6,27.5,15.1,0000.9,0018.76,0007.29,0005.93
2022-11-09 10:58:00,,0820.0,5.00,0.00,25.7,23.8,00.0,34.5,27.5,15.2,0001.1,0018.97,0007.37,0005.96
2022-11-09 10:59:00,,0820.0,5.01,0.00,25.6,23.8,00.0,34.5,27.4,15.2,0000.4,0018.68,0007.44,0005.99
